This demonstration page uses our WeatherBlox Daily Observations layout. Learn more.

Left ArrowRight Arrow

39.08367, -84.50855

Hourly Observations for January 11, 2015

Temp ( °F °C ) Dew Point ( °F °C ) Humidity (%) Winds ( mph kmh ) Pressure ( in mb ) Visibility ( mi km ) Precip ( " mm )
12:53 am 00:53 Clear 18 -7.8 6 -14.4 59 59 SW 5 7 30.48 1032 10 16.0934 0 0
1:53 am 01:53 Clear 17 -8.3 5 -15 59 59 SSW 6 9 30.49 1033 10 16.0934 0 0
2:53 am 02:53 Clear 16 -8.9 7 -13.9 67 67 Calm 30.5 1033 10 16.0934 0 0
3:53 am 03:53 Cloudy 16 -8.9 11 -11.7 80 80 Calm 30.48 1032 10 16.0934 0 0
4:53 am 04:53 Cloudy 20 -6.7 11 -11.7 68 68 Calm 30.48 1032 10 16.0934 0 0
5:53 am 05:53 Cloudy 22 -5.6 9 -12.8 57 57 SW 5 7 30.47 1032 10 16.0934 0 0
6:53 am 06:53 Cloudy 23 -5 10 -12.2 57 57 Calm 30.48 1032 10 16.0934 0 0
7:53 am 07:53 Cloudy 24 -4.4 10 -12.2 55 55 Calm 30.48 1032 10 16.0934 0 0
8:53 am 08:53 Cloudy 25 -3.9 11 -11.7 55 55 Calm 30.47 1032 10 16.0934 0 0
9:53 am 09:53 Cloudy 27 -2.8 11 -11.7 51 51 S 6 9 30.48 1032 10 16.0934 0 0
10:53 am 10:53 Cloudy 29 -1.7 11 -11.7 47 47 S 5 7 30.48 1032 10 16.0934 0 0
11:53 am 11:53 Cloudy 32 0 12 -11.1 43 43 S 5 7 30.45 1031 10 16.0934 0 0
12:53 pm 12:53 Cloudy 34 1.1 13 -10.6 42 42 S 5 7 30.42 1030 10 16.0934 0 0
1:53 pm 13:53 Cloudy 37 2.8 14 -10 39 39 S 5 7 30.4 1029 10 16.0934 0 0
2:53 pm 14:53 Cloudy 38 3.3 14 -10 37 37 Calm 30.39 1029 10 16.0934 0 0
3:53 pm 15:53 Cloudy with Light Rain 39 3.9 16 -8.9 39 39 S 3 6 30.39 1029 10 16.0934 0 0.0254
4:53 pm 16:53 Cloudy with Light Rain 37 2.8 24 -4.4 59 59 S 3 6 30.39 1029 10 16.0934 0 0.0254
5:53 pm 17:53 Cloudy with Light Rain 34 1.1 29 -1.7 82 82 SW 3 6 30.4 1030 8 12.87472 0.01 0.254
6:53 pm 18:53 Cloudy with Light Rain 33 0.6 32 0 96 96 Calm 30.41 1030 10 16.0934 0.01 0.254
7:53 pm 19:53 Cloudy with Drizzle 32 0 32 0 100 100 Calm 30.43 1031 4 6.43736 0.01 0.254
8:53 pm 20:53 Cloudy with Light Rain 34 1.1 32 0 92 92 SSE 12 19 30.4 1029 5 8.0467 0.03 0.762
9:53 pm 21:53 Cloudy with Light Rain 33 0.6 33 0.6 100 100 Calm 30.38 1029 5 8.0467 0.03 0.762
10:53 pm 22:53 Cloudy with Light Rain 33 0.6 32 0 96 96 Calm 30.36 1028 2.5 4.02335 0.02 0.508
11:18 pm 23:18 Cloudy with Light Rain 34 1 34 1 100 100 Calm 30.36 1028 1.5 2.41401 0 0
11:29 pm 23:29 Cloudy with Light Rain 33 0.6 33 0.6 100 100 Calm 30.36 1028 2.5 4.02335 0.02 0.508
11:35 pm 23:35 Cloudy with Light Rain 33 0.6 33 0.6 100 100 Calm 30.36 1028 4 6.43736 0.02 0.508
11:53 pm 23:53 Cloudy with Light Rain 33 0.6 33 0.6 100 100 SW 3 6 30.32 1027 4 6.43736 0.04 1.016

Powered by AerisWeather